Terminal Aerodrome Forecast
Issued by NWS

Home | Current Version | Previous Version | Text Only | Print | Product List | Glossary On
Versions: 1 2 3 4 5 6 7 8 9 10 11 12 13 14
000
FTUS46 KMFR 191100
TAFRBG
TAF
KRBG 191131Z 1912/2012 00000KT P6SM SCT020 SCT035
     FM191800 01004KT P6SM SKC
     FM192200 01011KT P6SM SKC
     FM200400 VRB03KT P6SM SKC=

USA.gov is the U.S. government's official web portal to all federal, state and local government web resources and services.